Year,Month,Day,Hour,Minute,Value (Times are PST for temperature in C)
2010,08,14,00,00,22.60
2010,08,14,00,01,22.60
2010,08,14,00,02,22.60
2010,08,14,00,03,22.50
2010,08,14,00,04,22.50
2010,08,14,00,05,22.50
2010,08,14,00,06,22.50
2010,08,14,00,07,22.40
2010,08,14,00,08,22.40
2010,08,14,00,09,22.40
2010,08,14,00,10,22.40
2010,08,14,00,11,22.40
2010,08,14,00,12,22.40
2010,08,14,00,13,22.40
2010,08,14,00,14,22.40
2010,08,14,00,15,22.40
2010,08,14,00,16,22.40
2010,08,14,00,17,22.40
2010,08,14,00,18,22.40
2010,08,14,00,19,22.40
2010,08,14,00,20,22.50
2010,08,14,00,21,22.50
2010,08,14,00,22,22.50
2010,08,14,00,23,22.50
2010,08,14,00,24,22.50
2010,08,14,00,25,22.50
2010,08,14,00,26,22.50
2010,08,14,00,27,22.50
2010,08,14,00,28,22.60
2010,08,14,00,29,22.60
2010,08,14,00,30,22.60
2010,08,14,00,31,22.60
2010,08,14,00,32,22.60
2010,08,14,00,33,22.60
2010,08,14,00,34,22.60
2010,08,14,00,35,22.60
2010,08,14,00,36,22.60
2010,08,14,00,37,22.60
2010,08,14,00,38,22.60
2010,08,14,00,39,22.60
2010,08,14,00,40,22.60
2010,08,14,00,41,22.60
2010,08,14,00,42,22.60
2010,08,14,00,43,22.60
2010,08,14,00,44,22.60
2010,08,14,00,45,22.60
2010,08,14,00,46,22.50
2010,08,14,00,47,22.50
2010,08,14,00,48,22.50
2010,08,14,00,49,22.30
2010,08,14,00,50,22.30
2010,08,14,00,51,22.20
2010,08,14,00,52,22.00
2010,08,14,00,53,21.90
2010,08,14,00,54,21.80
2010,08,14,00,55,21.70
2010,08,14,00,56,21.60
2010,08,14,00,57,21.50
2010,08,14,00,58,21.40
2010,08,14,00,59,21.30
2010,08,14,01,00,21.30
2010,08,14,01,01,21.20
2010,08,14,01,02,21.10
2010,08,14,01,03,21.10
2010,08,14,01,04,21.10
2010,08,14,01,05,21.00
2010,08,14,01,06,21.00
2010,08,14,01,07,21.00
2010,08,14,01,08,21.00
2010,08,14,01,09,21.10
2010,08,14,01,10,21.20
2010,08,14,01,11,21.20
2010,08,14,01,12,21.30
2010,08,14,01,13,21.30
2010,08,14,01,14,21.30
2010,08,14,01,15,21.40
2010,08,14,01,16,21.40
2010,08,14,01,17,21.40
2010,08,14,01,18,21.50
2010,08,14,01,19,21.60
2010,08,14,01,20,21.60
2010,08,14,01,21,21.60
2010,08,14,01,22,21.60
2010,08,14,01,23,21.60
2010,08,14,01,24,21.60
2010,08,14,01,25,21.60
2010,08,14,01,26,21.60
2010,08,14,01,27,21.60
2010,08,14,01,28,21.60
2010,08,14,01,29,21.60
2010,08,14,01,30,21.70
2010,08,14,01,31,21.70
2010,08,14,01,32,21.70
2010,08,14,01,33,21.70
2010,08,14,01,34,21.80
2010,08,14,01,35,21.80
2010,08,14,01,36,21.80
2010,08,14,01,37,21.80
2010,08,14,01,38,21.80
2010,08,14,01,39,21.80
2010,08,14,01,40,21.80
2010,08,14,01,41,21.80
2010,08,14,01,42,21.80
2010,08,14,01,43,21.80
2010,08,14,01,44,21.80
2010,08,14,01,45,21.80
2010,08,14,01,46,21.80
2010,08,14,01,47,21.70
2010,08,14,01,48,21.70
2010,08,14,01,49,21.70
2010,08,14,01,50,21.70
2010,08,14,01,51,21.70
2010,08,14,01,52,21.60
2010,08,14,01,53,21.60
2010,08,14,01,54,21.60
2010,08,14,01,55,21.60
2010,08,14,01,56,21.60
2010,08,14,01,57,21.60
2010,08,14,01,58,21.60
2010,08,14,01,59,21.60
2010,08,14,02,00,21.60
2010,08,14,02,01,21.60
2010,08,14,02,02,21.40
2010,08,14,02,03,21.40
2010,08,14,02,04,21.30
2010,08,14,02,05,21.30
2010,08,14,02,06,21.30
2010,08,14,02,07,21.30
2010,08,14,02,08,21.30
2010,08,14,02,09,21.30
2010,08,14,02,10,21.30
2010,08,14,02,11,21.20
2010,08,14,02,12,21.20
2010,08,14,02,13,21.20
2010,08,14,02,14,21.10
2010,08,14,02,15,21.10
2010,08,14,02,16,21.00
2010,08,14,02,17,20.90
2010,08,14,02,18,20.90
2010,08,14,02,19,20.80
2010,08,14,02,20,20.80
2010,08,14,02,21,20.70
2010,08,14,02,22,20.60
2010,08,14,02,23,20.60
2010,08,14,02,24,20.50
2010,08,14,02,25,20.50
2010,08,14,02,26,20.40
2010,08,14,02,27,20.30
2010,08,14,02,28,20.20
2010,08,14,02,29,20.20
2010,08,14,02,30,20.10
2010,08,14,02,31,20.00
2010,08,14,02,32,19.90
2010,08,14,02,33,19.90
2010,08,14,02,34,19.80
2010,08,14,02,35,19.70
2010,08,14,02,36,19.70
2010,08,14,02,37,19.60
2010,08,14,02,38,19.50
2010,08,14,02,39,19.40
2010,08,14,02,40,19.30
2010,08,14,02,41,19.30
2010,08,14,02,42,19.20
2010,08,14,02,43,19.10
2010,08,14,02,44,19.10
2010,08,14,02,45,19.10
2010,08,14,02,46,19.10
2010,08,14,02,47,19.10
2010,08,14,02,48,19.00
2010,08,14,02,49,19.00
2010,08,14,02,50,19.10
2010,08,14,02,51,19.10
2010,08,14,02,52,19.10
2010,08,14,02,53,19.10
2010,08,14,02,54,19.10
2010,08,14,02,55,19.10
2010,08,14,02,56,19.10
2010,08,14,02,57,19.10
2010,08,14,02,58,19.10
2010,08,14,02,59,19.10
2010,08,14,03,00,19.00
2010,08,14,03,01,19.10
2010,08,14,03,02,19.10
2010,08,14,03,03,19.10
2010,08,14,03,04,19.20
2010,08,14,03,05,19.30
2010,08,14,03,06,19.30
2010,08,14,03,07,19.30
2010,08,14,03,08,19.30
2010,08,14,03,09,19.40
2010,08,14,03,10,19.40
2010,08,14,03,11,19.40
2010,08,14,03,12,19.40
2010,08,14,03,13,19.40
2010,08,14,03,14,19.40
2010,08,14,03,15,19.30
2010,08,14,03,16,19.30
2010,08,14,03,17,19.30
2010,08,14,03,18,19.40
2010,08,14,03,19,19.40
2010,08,14,03,20,19.40
2010,08,14,03,21,19.40
2010,08,14,03,22,19.40
2010,08,14,03,23,19.40
2010,08,14,03,24,19.40
2010,08,14,03,25,19.40
2010,08,14,03,26,19.40
2010,08,14,03,27,19.40
2010,08,14,03,28,19.40
2010,08,14,03,29,19.40
2010,08,14,03,30,19.40
2010,08,14,03,31,19.40
2010,08,14,03,32,19.40
2010,08,14,03,33,19.40
2010,08,14,03,34,19.40
2010,08,14,03,35,19.40
2010,08,14,03,36,19.40
2010,08,14,03,37,19.40
2010,08,14,03,38,19.40
2010,08,14,03,39,19.40
2010,08,14,03,40,19.40
2010,08,14,03,41,19.40
2010,08,14,03,42,19.40
2010,08,14,03,43,19.40
2010,08,14,03,44,19.40
2010,08,14,03,45,19.40
2010,08,14,03,46,19.40
2010,08,14,03,47,19.50
2010,08,14,03,48,19.50
2010,08,14,03,49,19.50
2010,08,14,03,50,19.50
2010,08,14,03,51,19.60
2010,08,14,03,52,19.60
2010,08,14,03,53,19.60
2010,08,14,03,54,19.60
2010,08,14,03,55,19.60
2010,08,14,03,56,19.70
2010,08,14,03,57,19.70
2010,08,14,03,58,19.70
2010,08,14,03,59,19.70
2010,08,14,04,00,19.70
2010,08,14,04,01,19.70
2010,08,14,04,02,19.70
2010,08,14,04,03,19.70
2010,08,14,04,04,19.70
2010,08,14,04,05,19.70
2010,08,14,04,06,19.70
2010,08,14,04,07,19.70
2010,08,14,04,08,19.70
2010,08,14,04,09,19.60
2010,08,14,04,10,19.60
2010,08,14,04,11,19.60
2010,08,14,04,12,19.60
2010,08,14,04,13,19.50
2010,08,14,04,14,19.50
2010,08,14,04,15,19.50
2010,08,14,04,16,19.50
2010,08,14,04,17,19.50
2010,08,14,04,18,19.50
2010,08,14,04,19,19.50
2010,08,14,04,20,19.50
2010,08,14,04,21,19.60
2010,08,14,04,22,19.60
2010,08,14,04,23,19.60
2010,08,14,04,24,19.60
2010,08,14,04,25,19.50
2010,08,14,04,26,19.50
2010,08,14,04,27,19.50
2010,08,14,04,28,19.50
2010,08,14,04,29,19.50
2010,08,14,04,30,19.50
2010,08,14,04,31,19.50
2010,08,14,04,32,19.40
2010,08,14,04,33,19.40
2010,08,14,04,34,19.40
2010,08,14,04,35,19.50
2010,08,14,04,36,19.50
2010,08,14,04,37,19.60
2010,08,14,04,38,19.60
2010,08,14,04,39,19.70
2010,08,14,04,40,19.70
2010,08,14,04,41,19.70
2010,08,14,04,42,19.70
2010,08,14,04,43,19.70
2010,08,14,04,44,19.70
2010,08,14,04,45,19.70
2010,08,14,04,46,19.70
2010,08,14,04,47,19.70
2010,08,14,04,48,19.70
2010,08,14,04,49,19.60
2010,08,14,04,50,19.60
2010,08,14,04,51,19.60
2010,08,14,04,52,19.50
2010,08,14,04,53,19.50
2010,08,14,04,54,19.50
2010,08,14,04,55,19.50
2010,08,14,04,56,19.50
2010,08,14,04,57,19.60
2010,08,14,04,58,19.60
2010,08,14,04,59,19.60
2010,08,14,05,00,19.60
2010,08,14,05,01,19.60
2010,08,14,05,02,19.60
2010,08,14,05,03,19.60
2010,08,14,05,04,19.60
2010,08,14,05,05,19.50
2010,08,14,05,06,19.50
2010,08,14,05,07,19.50
2010,08,14,05,08,19.50
2010,08,14,05,09,19.50
2010,08,14,05,10,19.50
2010,08,14,05,11,19.50
2010,08,14,05,12,19.50
2010,08,14,05,13,19.50
2010,08,14,05,14,19.50
2010,08,14,05,15,19.50
2010,08,14,05,16,19.50
2010,08,14,05,17,19.50
2010,08,14,05,18,19.50
2010,08,14,05,19,19.50
2010,08,14,05,20,19.50
2010,08,14,05,21,19.40
2010,08,14,05,22,19.40
2010,08,14,05,23,19.30
2010,08,14,05,24,19.30
2010,08,14,05,25,19.20
2010,08,14,05,26,19.20
2010,08,14,05,27,19.10
2010,08,14,05,28,19.00
2010,08,14,05,29,18.90
2010,08,14,05,30,18.90
2010,08,14,05,31,18.90
2010,08,14,05,32,18.90
2010,08,14,05,33,18.80
2010,08,14,05,34,18.80
2010,08,14,05,35,18.80
2010,08,14,05,36,18.80
2010,08,14,05,37,18.80
2010,08,14,05,38,18.80
2010,08,14,05,39,18.80
2010,08,14,05,40,18.70
2010,08,14,05,41,18.70
2010,08,14,05,42,18.80
2010,08,14,05,43,18.80
2010,08,14,05,44,18.80
2010,08,14,05,45,18.70
2010,08,14,05,46,18.70
2010,08,14,05,47,18.70
2010,08,14,05,48,18.60
2010,08,14,05,49,18.60
2010,08,14,05,50,18.60
2010,08,14,05,51,18.50
2010,08,14,05,52,18.50
2010,08,14,05,53,18.40
2010,08,14,05,54,18.40
2010,08,14,05,55,18.30
2010,08,14,05,56,18.30
2010,08,14,05,57,18.20
2010,08,14,05,58,18.20
2010,08,14,05,59,18.20
2010,08,14,06,00,18.20
2010,08,14,06,01,18.20
2010,08,14,06,02,18.20
2010,08,14,06,03,18.20
2010,08,14,06,04,18.20
2010,08,14,06,05,18.20
2010,08,14,06,06,18.20
2010,08,14,06,07,18.20
2010,08,14,06,08,18.20
2010,08,14,06,09,18.20
2010,08,14,06,10,18.30
2010,08,14,06,11,18.30
2010,08,14,06,12,18.40
2010,08,14,06,13,18.40
2010,08,14,06,14,18.50
2010,08,14,06,15,18.50
2010,08,14,06,16,18.50
2010,08,14,06,17,18.60
2010,08,14,06,18,18.60
2010,08,14,06,19,18.60
2010,08,14,06,20,18.60
2010,08,14,06,21,18.60
2010,08,14,06,22,18.60
2010,08,14,06,23,18.70
2010,08,14,06,24,18.70
2010,08,14,06,25,18.80
2010,08,14,06,26,18.90
2010,08,14,06,27,18.90
2010,08,14,06,28,18.90
2010,08,14,06,29,18.90
2010,08,14,06,30,19.00
2010,08,14,06,31,19.10
2010,08,14,06,32,19.10
2010,08,14,06,33,19.10
2010,08,14,06,34,19.10
2010,08,14,06,35,19.20
2010,08,14,06,36,19.20
2010,08,14,06,37,19.20
2010,08,14,06,38,19.30
2010,08,14,06,39,19.30
2010,08,14,06,40,19.30
2010,08,14,06,41,19.20
2010,08,14,06,42,19.20
2010,08,14,06,43,19.20
2010,08,14,06,44,19.20
2010,08,14,06,45,19.20
2010,08,14,06,46,19.20
2010,08,14,06,47,19.20
2010,08,14,06,48,19.20
2010,08,14,06,49,19.20
2010,08,14,06,50,19.20
2010,08,14,06,51,19.20
2010,08,14,06,52,19.20
2010,08,14,06,53,19.10
2010,08,14,06,54,19.10
2010,08,14,06,55,19.10
2010,08,14,06,56,19.10
2010,08,14,06,57,19.10
2010,08,14,06,58,19.00
2010,08,14,06,59,18.90
2010,08,14,07,00,18.90
2010,08,14,07,01,18.90
2010,08,14,07,02,18.90
2010,08,14,07,03,18.90
2010,08,14,07,04,19.00
2010,08,14,07,05,19.10
2010,08,14,07,06,19.10
2010,08,14,07,07,19.10
2010,08,14,07,08,19.10
2010,08,14,07,09,19.10
2010,08,14,07,10,19.10
2010,08,14,07,11,19.10
2010,08,14,07,12,19.10
2010,08,14,07,13,19.10
2010,08,14,07,14,19.10
2010,08,14,07,15,19.10
2010,08,14,07,16,19.10
2010,08,14,07,17,19.10
2010,08,14,07,18,19.10
2010,08,14,07,19,19.00
2010,08,14,07,20,18.90
2010,08,14,07,21,18.90
2010,08,14,07,22,18.90
2010,08,14,07,23,18.90
2010,08,14,07,24,18.90
2010,08,14,07,25,18.90
2010,08,14,07,26,19.00
2010,08,14,07,27,19.10
2010,08,14,07,28,19.10
2010,08,14,07,29,19.20
2010,08,14,07,30,19.20
2010,08,14,07,31,19.20
2010,08,14,07,32,19.30
2010,08,14,07,33,19.40
2010,08,14,07,34,19.40
2010,08,14,07,35,19.40
2010,08,14,07,36,19.50
2010,08,14,07,37,19.50
2010,08,14,07,38,19.50
2010,08,14,07,39,19.50
2010,08,14,07,40,19.50
2010,08,14,07,41,19.50
2010,08,14,07,42,19.50
2010,08,14,07,43,19.50
2010,08,14,07,44,19.50
2010,08,14,07,45,19.50
2010,08,14,07,46,19.50
2010,08,14,07,47,19.50
2010,08,14,07,48,19.50
2010,08,14,07,49,19.50
2010,08,14,07,50,19.50
2010,08,14,07,51,19.50
2010,08,14,07,52,19.50
2010,08,14,07,53,19.50
2010,08,14,07,54,19.40
2010,08,14,07,55,19.40
2010,08,14,07,56,19.40
2010,08,14,07,57,19.40
2010,08,14,07,58,19.40
2010,08,14,07,59,19.40
2010,08,14,08,00,19.40
2010,08,14,08,01,19.40
2010,08,14,08,02,19.50
2010,08,14,08,03,19.50
2010,08,14,08,04,19.50
2010,08,14,08,05,19.50
2010,08,14,08,06,19.50
2010,08,14,08,07,19.50
2010,08,14,08,08,19.50
2010,08,14,08,09,19.50
2010,08,14,08,10,19.50
2010,08,14,08,11,19.50
2010,08,14,08,12,19.50
2010,08,14,08,13,19.50
2010,08,14,08,14,19.60
2010,08,14,08,15,19.60
2010,08,14,08,16,19.60
2010,08,14,08,17,19.70
2010,08,14,08,18,19.80
2010,08,14,08,19,19.90
2010,08,14,08,20,20.00
2010,08,14,08,21,20.10
2010,08,14,08,22,20.20
2010,08,14,08,23,20.40
2010,08,14,08,24,20.50
2010,08,14,08,25,20.60
2010,08,14,08,26,20.70
2010,08,14,08,27,20.80
2010,08,14,08,28,20.90
2010,08,14,08,29,21.00
2010,08,14,08,30,21.10
2010,08,14,08,31,21.20
2010,08,14,08,32,21.30
2010,08,14,08,33,21.30
2010,08,14,08,34,21.40
2010,08,14,08,35,21.60
2010,08,14,08,36,21.60
2010,08,14,08,37,21.60
2010,08,14,08,38,21.70
2010,08,14,08,39,21.70
2010,08,14,08,40,21.80
2010,08,14,08,41,21.80
2010,08,14,08,42,21.80
2010,08,14,08,43,21.90
2010,08,14,08,44,21.90
2010,08,14,08,45,21.90
2010,08,14,08,46,21.90
2010,08,14,08,47,21.90
2010,08,14,08,48,22.00
2010,08,14,08,49,22.00
2010,08,14,08,50,22.00
2010,08,14,08,51,22.00
2010,08,14,08,52,22.00
2010,08,14,08,53,22.00
2010,08,14,08,54,22.10
2010,08,14,08,55,22.10
2010,08,14,08,56,22.10
2010,08,14,08,57,22.10
2010,08,14,08,58,22.10
2010,08,14,08,59,22.10
2010,08,14,09,00,22.10
2010,08,14,09,01,22.20
2010,08,14,09,02,22.20
2010,08,14,09,03,22.20
2010,08,14,09,04,22.20
2010,08,14,09,05,22.20
2010,08,14,09,06,22.30
2010,08,14,09,07,22.30
2010,08,14,09,08,22.30
2010,08,14,09,09,22.30
2010,08,14,09,10,22.20
2010,08,14,09,11,22.30
2010,08,14,09,12,22.30
2010,08,14,09,13,22.20
2010,08,14,09,14,22.20
2010,08,14,09,15,22.20
2010,08,14,09,16,22.20
2010,08,14,09,17,22.20
2010,08,14,09,18,22.20
2010,08,14,09,19,22.10
2010,08,14,09,20,22.00
2010,08,14,09,21,22.00
2010,08,14,09,22,21.80
2010,08,14,09,23,21.70
2010,08,14,09,24,21.70
2010,08,14,09,25,21.70
2010,08,14,09,26,21.70
2010,08,14,09,27,21.70
2010,08,14,09,28,21.70
2010,08,14,09,29,21.70
2010,08,14,09,30,21.70
2010,08,14,09,31,21.70
2010,08,14,09,32,21.70
2010,08,14,09,33,21.70
2010,08,14,09,34,21.80
2010,08,14,09,35,21.80
2010,08,14,09,36,21.80
2010,08,14,09,37,21.80
2010,08,14,09,38,21.80
2010,08,14,09,39,21.80
2010,08,14,09,40,21.90
2010,08,14,09,41,21.90
2010,08,14,09,42,21.90
2010,08,14,09,43,22.00
2010,08,14,09,44,22.00
2010,08,14,09,45,21.90
2010,08,14,09,46,21.90
2010,08,14,09,47,21.90
2010,08,14,09,48,21.90
2010,08,14,09,49,22.00
2010,08,14,09,50,22.00
2010,08,14,09,51,22.10
2010,08,14,09,52,22.20
2010,08,14,09,53,22.30
2010,08,14,09,54,22.40
2010,08,14,09,55,22.50
2010,08,14,09,56,22.60
2010,08,14,09,57,22.60
2010,08,14,09,58,22.70
2010,08,14,09,59,22.80
2010,08,14,10,00,22.80
2010,08,14,10,01,22.90
2010,08,14,10,02,22.90
2010,08,14,10,03,22.90
2010,08,14,10,04,22.90
2010,08,14,10,05,22.90
2010,08,14,10,06,22.90
2010,08,14,10,07,22.90
2010,08,14,10,08,22.90
2010,08,14,10,09,22.90
2010,08,14,10,10,22.90
2010,08,14,10,11,22.90
2010,08,14,10,12,22.90
2010,08,14,11,36,25.20
2010,08,14,11,37,25.20
2010,08,14,11,38,25.20
2010,08,14,11,39,25.20
2010,08,14,11,40,25.30
2010,08,14,11,41,25.40
2010,08,14,11,42,25.50
2010,08,14,11,43,25.50
2010,08,14,11,44,25.50
2010,08,14,11,45,25.60
2010,08,14,11,46,25.60
2010,08,14,11,47,25.70
2010,08,14,11,48,25.70
2010,08,14,11,49,25.60
2010,08,14,11,50,25.70
2010,08,14,11,51,25.80
2010,08,14,11,52,25.80
2010,08,14,11,53,25.80
2010,08,14,11,54,25.80
2010,08,14,11,55,25.80
2010,08,14,11,56,25.80
2010,08,14,11,57,25.90
2010,08,14,11,58,25.90
2010,08,14,11,59,25.90
2010,08,14,12,00,25.90
2010,08,14,12,01,25.90
2010,08,14,12,02,25.80
2010,08,14,12,03,25.80
2010,08,14,12,04,25.80
2010,08,14,12,05,25.70
2010,08,14,12,06,25.70
2010,08,14,12,07,25.70
2010,08,14,12,08,25.70
2010,08,14,12,09,25.70
2010,08,14,12,10,25.70
2010,08,14,12,11,25.70
2010,08,14,12,12,25.70
2010,08,14,12,13,25.80
2010,08,14,12,14,25.90
2010,08,14,12,15,25.90
2010,08,14,12,16,25.90
2010,08,14,12,17,26.00
2010,08,14,12,18,26.10
2010,08,14,12,19,26.30
2010,08,14,12,20,26.40
2010,08,14,12,21,26.60
2010,08,14,12,22,26.60
2010,08,14,12,23,26.70
2010,08,14,12,24,26.80
2010,08,14,12,25,26.70
2010,08,14,12,26,26.70
2010,08,14,12,27,26.70
2010,08,14,12,28,26.70
2010,08,14,12,29,26.70
2010,08,14,12,30,26.80
2010,08,14,12,31,26.80
2010,08,14,12,32,26.80
2010,08,14,12,33,26.80
2010,08,14,12,34,27.00
2010,08,14,12,35,27.10
2010,08,14,12,36,27.10
2010,08,14,12,37,27.00
2010,08,14,12,38,26.90
2010,08,14,12,39,26.90
2010,08,14,12,40,26.90
2010,08,14,12,41,26.90
2010,08,14,12,42,26.90
2010,08,14,12,43,26.80
2010,08,14,12,44,26.80
2010,08,14,12,45,26.80
2010,08,14,12,46,26.80
2010,08,14,12,47,26.80
2010,08,14,12,48,26.70
2010,08,14,12,49,26.80
2010,08,14,12,50,26.80
2010,08,14,12,51,27.00
2010,08,14,12,52,27.20
2010,08,14,12,53,27.20
2010,08,14,12,54,27.30
2010,08,14,12,55,27.30
2010,08,14,12,56,27.30
2010,08,14,12,57,27.30
2010,08,14,12,58,27.40
2010,08,14,12,59,27.40
2010,08,14,13,00,27.40
2010,08,14,13,01,27.40
2010,08,14,13,02,27.50
2010,08,14,13,03,27.60
2010,08,14,13,04,27.60
2010,08,14,13,05,27.60
2010,08,14,13,06,27.60
2010,08,14,13,07,27.70
2010,08,14,13,08,27.60
2010,08,14,13,09,27.50
2010,08,14,13,10,27.40
2010,08,14,13,11,27.40
2010,08,14,13,12,27.30
2010,08,14,13,13,27.30
2010,08,14,13,14,27.30
2010,08,14,13,15,27.30
2010,08,14,13,16,27.20
2010,08,14,13,17,27.10
2010,08,14,13,18,27.10
2010,08,14,13,19,27.10
2010,08,14,13,20,27.10
2010,08,14,13,21,27.10
2010,08,14,13,22,27.00
2010,08,14,13,23,27.00
2010,08,14,13,24,27.10
2010,08,14,13,25,27.10
2010,08,14,13,26,27.10
2010,08,14,13,27,27.30
2010,08,14,13,28,27.30
2010,08,14,13,29,27.30
2010,08,14,13,30,27.30
2010,08,14,13,31,27.40
2010,08,14,13,32,27.40
2010,08,14,13,33,27.60
2010,08,14,13,34,27.60
2010,08,14,13,35,27.50
2010,08,14,13,36,27.40
2010,08,14,13,37,27.30
2010,08,14,13,38,27.30
2010,08,14,13,39,27.30
2010,08,14,13,40,27.30
2010,08,14,13,41,27.30
2010,08,14,13,42,27.30
2010,08,14,13,43,27.30
2010,08,14,13,44,27.20
2010,08,14,13,45,27.20
2010,08,14,13,46,27.20
2010,08,14,13,47,27.20
2010,08,14,13,48,27.30
2010,08,14,13,49,27.30
2010,08,14,13,50,27.30
2010,08,14,13,51,27.30
2010,08,14,13,52,27.30
2010,08,14,13,53,27.40
2010,08,14,13,54,27.50
2010,08,14,13,55,27.60
2010,08,14,13,56,27.80
2010,08,14,13,57,28.00
2010,08,14,13,58,28.10
2010,08,14,13,59,28.30
2010,08,14,14,00,28.30
2010,08,14,14,01,28.50
2010,08,14,14,02,28.60
2010,08,14,14,03,28.60
2010,08,14,14,04,28.60
2010,08,14,14,05,28.70
2010,08,14,14,06,28.80
2010,08,14,14,07,28.90
2010,08,14,14,08,28.90
2010,08,14,14,09,28.90
2010,08,14,14,10,28.90
2010,08,14,14,11,28.90
2010,08,14,14,12,28.90
2010,08,14,14,13,29.10
2010,08,14,14,14,29.10
2010,08,14,14,15,29.20
2010,08,14,14,16,29.20
2010,08,14,14,17,29.20
2010,08,14,14,18,29.20
2010,08,14,14,19,29.20
2010,08,14,14,20,29.30
2010,08,14,14,21,29.30
2010,08,14,14,22,29.40
2010,08,14,14,23,29.50
2010,08,14,14,24,29.60
2010,08,14,14,25,29.60
2010,08,14,14,26,29.60
2010,08,14,14,27,29.60
2010,08,14,14,28,29.50
2010,08,14,14,29,29.40
2010,08,14,14,30,29.30
2010,08,14,14,31,29.30
2010,08,14,14,32,29.20
2010,08,14,14,33,29.10
2010,08,14,14,34,29.10
2010,08,14,14,35,29.00
2010,08,14,14,36,28.90
2010,08,14,14,37,28.90
2010,08,14,14,38,28.90
2010,08,14,14,39,28.90
2010,08,14,14,40,28.80
2010,08,14,14,41,28.70
2010,08,14,14,42,28.70
2010,08,14,14,43,28.70
2010,08,14,14,44,28.80
2010,08,14,14,45,28.80
2010,08,14,14,46,28.80
2010,08,14,14,47,28.80
2010,08,14,14,48,28.80
2010,08,14,14,49,28.70
2010,08,14,14,50,28.70
2010,08,14,14,51,28.70
2010,08,14,14,52,28.70
2010,08,14,14,53,28.70
2010,08,14,14,54,28.70
2010,08,14,14,55,28.80
2010,08,14,14,56,28.80
2010,08,14,14,57,28.90
2010,08,14,14,58,28.90
2010,08,14,14,59,28.90
2010,08,14,15,00,29.00
2010,08,14,15,01,29.10
2010,08,14,15,02,29.10
2010,08,14,15,03,29.10
2010,08,14,15,04,29.00
2010,08,14,15,05,28.90
2010,08,14,15,06,28.90
2010,08,14,15,07,28.90
2010,08,14,15,08,28.90
2010,08,14,15,09,28.90
2010,08,14,15,10,29.00
2010,08,14,15,11,29.10
2010,08,14,15,12,29.10
2010,08,14,15,13,29.00
2010,08,14,15,14,28.90
2010,08,14,15,15,28.90
2010,08,14,15,16,28.90
2010,08,14,15,17,29.00
2010,08,14,15,18,29.10
2010,08,14,15,19,29.10
2010,08,14,15,20,29.20
2010,08,14,15,21,29.30
2010,08,14,15,22,29.40
2010,08,14,15,23,29.50
2010,08,14,15,24,29.50
2010,08,14,15,25,29.50
2010,08,14,15,26,29.50
2010,08,14,15,27,29.50
2010,08,14,15,28,29.50
2010,08,14,15,29,29.50
2010,08,14,15,30,29.60
2010,08,14,15,31,29.70
2010,08,14,15,32,29.80
2010,08,14,15,33,29.90
2010,08,14,15,34,30.10
2010,08,14,15,35,30.20
2010,08,14,15,36,30.20
2010,08,14,15,37,30.30
2010,08,14,15,38,30.50
2010,08,14,15,39,30.60
2010,08,14,15,40,30.70
2010,08,14,15,41,30.60
2010,08,14,15,42,30.60
2010,08,14,15,43,30.60
2010,08,14,15,44,30.40
2010,08,14,15,45,30.40
2010,08,14,15,46,30.40
2010,08,14,15,47,30.40
2010,08,14,15,48,30.40
2010,08,14,15,49,30.40
2010,08,14,15,50,30.20
2010,08,14,15,51,30.10
2010,08,14,15,52,30.00
2010,08,14,15,53,29.90
2010,08,14,15,54,29.90
2010,08,14,15,55,29.80
2010,08,14,15,56,29.70
2010,08,14,15,57,29.60
2010,08,14,15,58,29.60
2010,08,14,15,59,29.50
2010,08,14,16,00,29.60
2010,08,14,16,01,29.60
2010,08,14,16,02,29.60
2010,08,14,16,03,29.60
2010,08,14,16,04,29.60
2010,08,14,16,05,29.60
2010,08,14,16,06,29.50
2010,08,14,16,07,29.50
2010,08,14,16,08,29.50
2010,08,14,16,09,29.50
2010,08,14,16,10,29.50
2010,08,14,16,11,29.50
2010,08,14,16,12,29.60
2010,08,14,16,13,29.60
2010,08,14,16,14,29.60
2010,08,14,16,15,29.60
2010,08,14,16,16,29.60
2010,08,14,16,17,29.70
2010,08,14,16,18,29.70
2010,08,14,16,19,29.70
2010,08,14,16,20,29.80
2010,08,14,16,21,30.00
2010,08,14,16,22,30.10
2010,08,14,16,23,30.20
2010,08,14,16,24,30.30
2010,08,14,16,25,30.30
2010,08,14,16,26,30.30
2010,08,14,16,27,30.30
2010,08,14,16,28,30.30
2010,08,14,16,29,30.30
2010,08,14,16,30,30.20
2010,08,14,16,31,30.30
2010,08,14,16,32,30.30
2010,08,14,16,33,30.40
2010,08,14,16,34,30.50
2010,08,14,16,35,30.60
2010,08,14,16,36,30.70
2010,08,14,16,37,30.70
2010,08,14,16,38,30.80
2010,08,14,16,39,30.90
2010,08,14,16,40,31.00
2010,08,14,16,41,31.10
2010,08,14,16,42,31.10
2010,08,14,16,43,31.00
2010,08,14,16,44,30.90
2010,08,14,16,45,30.80
2010,08,14,16,46,30.80
2010,08,14,16,47,30.70
2010,08,14,16,48,30.60
2010,08,14,16,49,30.50
2010,08,14,16,50,30.40
2010,08,14,16,51,30.40
2010,08,14,16,52,30.40
2010,08,14,16,53,30.50
2010,08,14,16,54,30.70
2010,08,14,16,55,30.70
2010,08,14,16,56,30.90
2010,08,14,16,57,31.00
2010,08,14,16,58,31.10
2010,08,14,16,59,31.10
2010,08,14,17,00,31.20
2010,08,14,17,01,31.20
2010,08,14,17,02,31.20
2010,08,14,17,03,31.20
2010,08,14,17,04,31.20
2010,08,14,17,05,31.20
2010,08,14,17,06,31.20
2010,08,14,17,07,31.20
2010,08,14,17,08,31.10
2010,08,14,17,09,31.10
2010,08,14,17,10,31.10
2010,08,14,17,11,31.00
2010,08,14,17,12,31.00
2010,08,14,17,13,31.00
2010,08,14,17,14,31.10
2010,08,14,17,15,31.10
2010,08,14,17,16,31.10
2010,08,14,17,17,31.20
2010,08,14,17,18,31.30
2010,08,14,17,19,31.30
2010,08,14,17,20,31.30
2010,08,14,17,21,31.30
2010,08,14,17,22,31.20
2010,08,14,17,23,31.30
2010,08,14,17,24,31.30
2010,08,14,17,25,31.30
2010,08,14,17,26,31.40
2010,08,14,17,27,31.40
2010,08,14,17,28,31.40
2010,08,14,17,29,31.40
2010,08,14,17,30,31.40
2010,08,14,17,31,31.40
2010,08,14,17,32,31.40
2010,08,14,17,33,31.20
2010,08,14,17,34,31.10
2010,08,14,17,35,31.00
2010,08,14,17,36,31.00
2010,08,14,17,37,31.00
2010,08,14,17,38,31.00
2010,08,14,17,39,31.00
2010,08,14,17,40,31.00
2010,08,14,17,41,31.00
2010,08,14,17,42,31.00
2010,08,14,17,43,31.00
2010,08,14,17,44,31.00
2010,08,14,17,45,31.00
2010,08,14,17,46,30.90
2010,08,14,17,47,30.90
2010,08,14,17,48,30.90
2010,08,14,17,49,30.80
2010,08,14,17,50,30.80
2010,08,14,17,51,30.80
2010,08,14,17,52,30.70
2010,08,14,17,53,30.70
2010,08,14,17,54,30.70
2010,08,14,17,55,30.70
2010,08,14,17,56,30.60
2010,08,14,17,57,30.60
2010,08,14,17,58,30.60
2010,08,14,17,59,30.60
2010,08,14,18,00,30.40
2010,08,14,18,01,30.40
2010,08,14,18,02,30.40
2010,08,14,18,03,30.40
2010,08,14,18,04,30.30
2010,08,14,18,05,30.30
2010,08,14,18,06,30.20
2010,08,14,18,07,30.20
2010,08,14,18,08,30.10
2010,08,14,18,09,30.10
2010,08,14,18,10,30.10
2010,08,14,18,11,30.10
2010,08,14,18,12,30.10
2010,08,14,18,13,30.10
2010,08,14,18,14,30.10
2010,08,14,18,15,30.10
2010,08,14,18,16,30.00
2010,08,14,18,17,29.90
2010,08,14,18,18,29.80
2010,08,14,18,19,29.80
2010,08,14,18,20,29.80
2010,08,14,18,21,29.70
2010,08,14,18,22,29.70
2010,08,14,18,23,29.70
2010,08,14,18,24,29.70
2010,08,14,18,25,29.70
2010,08,14,18,26,29.70
2010,08,14,18,27,29.60
2010,08,14,18,28,29.60
2010,08,14,18,29,29.60
2010,08,14,18,30,29.60
2010,08,14,18,31,29.50
2010,08,14,18,32,29.50
2010,08,14,18,33,29.50
2010,08,14,18,34,29.50
2010,08,14,18,35,29.50
2010,08,14,18,36,29.50
2010,08,14,18,37,29.50
2010,08,14,18,38,29.50
2010,08,14,18,39,29.50
2010,08,14,18,40,29.50
2010,08,14,18,41,29.50
2010,08,14,18,42,29.40